Location: Be?i?
(36.9044°N, 30.1006°E)
Time: 10:11:23
(UTC+00:00)

SJ 16-02 - Pass Details

Date: 05 August 2024
Orbit: 593 x 603 km, 75.0° (Epoch: 13 September)

Event Time Altitude Azimuth Distance (km) Brightness Sun altitude
Rises 20:18:18 0° 344° (NNW) 2,865 5.9 -30.8°
Reaches altitude 10° 20:20:32 10° 345° (NNW) 1,956 4.7 -31.0°
Enters shadow 20:22:48 30° 348° (NNW) 1,088 3.1 -31.2°
